Location: Girdwood
(60.9430°N, 149.1660°W)
Time: 07:27:12
(UTC-08:00)

Amateur Radio Satellites - All Passes

Search period start: 16 September 2014 06:57
Search period end: 17 September 2014 06:57
Location: Girdwood, 60.9430°N, 149.1660°W

Satellite Date Start Highest point End Downlink Frequencies (MHz)
Time Altitude Azimuth
Uosat F 16 Sep 06:58:34 07:03:38 85° 109° (ESE) 07:08:40 435.120 FM
OPAL 16 Sep 07:04:41 07:08:16 18° 273° (W) 07:11:52 ?
JAS-2 16 Sep 07:07:10 07:12:05 31° 92° (E) 07:17:28 435.800 - 435.900 CW/SSB, 435.910 FM
ISS 16 Sep 07:11:22 07:13:04 13° 162° (SSE) 07:14:46 145.800 FM
SO-50 16 Sep 07:15:17 07:20:02 87° 210° (SSW) 07:24:53 436.795 FM
Hamsat 16 Sep 07:20:40 07:24:31 30° 93° (E) 07:28:18 145.90 MHz
ITAMSAT 1 16 Sep 07:23:58 07:27:18 18° 323° (NW) 07:30:39 435.822 SSB
TMSAT-1 16 Sep 07:29:03 07:33:24 26° 313° (NW) 07:37:44 436.925 FM
Uribyol 2 16 Sep 07:29:14 07:32:23 16° 325° (NW) 07:35:32 436.500 FM
AO-Echo 16 Sep 07:32:27 07:34:25 13° 326° (NW) 07:36:24 ?
UOSAT-12 16 Sep 07:33:15 07:37:58 58° 9° (N) 07:42:40 437.025 FM, 437.400 FM
STRAND 1 16 Sep 07:37:00 07:42:06 76° 253° (WSW) 07:47:15 ?
JAS-1B 16 Sep 07:38:34 07:43:12 21° 330° (NNW) 07:47:28 435.800 - 435.900 CW/SSB
Oscar 19 16 Sep 07:50:50 07:51:45 10° 339° (NNW) 07:52:40 437.125 CW, 437.150 USB
AO-27 16 Sep 07:58:26 08:00:48 13° 331° (NNW) 08:03:11 436.795 MHz FM
RS-15 16 Sep 08:08:23 08:19:18 78° 141° (SE) 08:30:19 29.354 - 29.394 USB, Beacon 29.352 USB
AO-7 16 Sep 08:14:56 08:23:06 63° 307° (NW) 08:31:13 29.400 - 29.500 MHz
SO-67 16 Sep 08:15:54 08:18:21 18° 89° (E) 08:20:48 435.3500 MHz FM
Gurwin Techsat 1B 16 Sep 08:30:09 08:32:45 14° 330° (NNW) 08:35:21 435.225 FM
Uosat F 16 Sep 08:37:47 08:42:01 28° 311° (NW) 08:46:14 435.120 FM
ISS 16 Sep 08:46:39 08:48:55 17° 182° (S) 08:51:11 145.800 FM
KITSAT 1 16 Sep 08:50:24 08:51:49 11° 268° (W) 08:53:13 435.175 FM
JAS-2 16 Sep 08:52:14 08:57:43 75° 293° (WNW) 09:03:50 435.800 - 435.900 CW/SSB, 435.910 FM
SO-50 16 Sep 08:56:04 09:00:16 31° 232° (SW) 09:04:30 436.795 FM
Hamsat 16 Sep 08:56:31 09:00:45 55° 294° (WNW) 09:04:56 145.90 MHz
TMSAT-1 16 Sep 09:10:06 09:11:48 12° 336° (NNW) 09:13:30 436.925 FM
UOSAT-12 16 Sep 09:13:37 09:18:24 80° 213° (SSW) 09:23:08 437.025 FM, 437.400 FM
HO-68 16 Sep 09:16:32 09:20:55 17° 78° (ENE) 09:25:18 435.675 MHz FM
STRAND 1 16 Sep 09:18:38 09:22:12 19° 275° (W) 09:25:47 ?
JAS-1B 16 Sep 09:28:25 09:31:38 14° 357° (N) 09:34:40 435.800 - 435.900 CW/SSB
SO-67 16 Sep 09:48:20 09:51:48 69° 289° (WNW) 09:55:15 435.3500 MHz FM
AO-7 16 Sep 10:07:44 10:14:44 32° 332° (NNW) 10:21:44 29.400 - 29.500 MHz
Uosat F 16 Sep 10:17:48 10:19:26 12° 334° (NNW) 10:21:03 435.120 FM
Oscar 11 16 Sep 10:18:00 10:19:54 13° 81° (E) 10:21:47 145.825 FM, Beacon 2401.500 USB
RS-15 16 Sep 10:21:07 10:32:05 74° 351° (N) 10:43:16 29.354 - 29.394 USB, Beacon 29.352 USB
ISS 16 Sep 10:23:29 10:24:44 12° 202° (SSW) 10:25:58 145.800 FM
UKube-1 16 Sep 10:30:23 10:33:24 18° 87° (E) 10:36:25 145.840 MHz, 145.915 MHz
Hamsat 16 Sep 10:33:24 10:35:56 15° 316° (NW) 10:38:27 145.90 MHz
JAS-2 16 Sep 10:37:57 10:42:16 25° 315° (NW) 10:46:54 435.800 - 435.900 CW/SSB, 435.910 FM
MaSat-1 16 Sep 10:42:49 10:47:19 33° 117° (ESE) 10:51:38 437.345 MHz
UOSAT-12 16 Sep 10:54:06 10:58:06 27° 235° (SW) 11:02:03 437.025 FM, 437.400 FM
HO-68 16 Sep 11:03:22 11:10:24 54° 102° (ESE) 11:17:25 435.675 MHz FM
Oscar 19 16 Sep 11:04:12 11:06:15 12° 27° (NNE) 11:08:19 437.125 CW, 437.150 USB
AO-27 16 Sep 11:14:55 11:15:43 10° 20° (NNE) 11:16:31 436.795 MHz FM
JAS-1B 16 Sep 11:15:20 11:19:57 18° 25° (NNE) 11:24:11 435.800 - 435.900 CW/SSB
SO-67 16 Sep 11:22:25 11:24:16 14° 310° (NW) 11:26:07 435.3500 MHz FM
FUNcube-1 16 Sep 11:32:56 11:36:48 25° 90° (E) 11:40:39 145.950 - 145.970 MHz USB
Oscar 16 16 Sep 11:40:35 11:43:51 17° 37° (NE) 11:47:07 437.025 USB, Beacon 2401.1428
Gurwin Techsat 1B 16 Sep 11:47:39 11:48:30 10° 19° (NNE) 11:49:22 435.225 FM
Oscar 11 16 Sep 11:52:43 11:57:04 59° 102° (ESE) 12:01:22 145.825 FM, Beacon 2401.500 USB
AO-7 16 Sep 11:59:14 12:05:27 25° 359° (N) 12:11:40 29.400 - 29.500 MHz
UKube-1 16 Sep 12:05:54 12:10:17 85° 108° (ESE) 12:14:40 145.840 MHz, 145.915 MHz
ITAMSAT 1 16 Sep 12:16:49 12:19:59 17° 35° (NE) 12:23:09 435.822 SSB
MaSat-1 16 Sep 12:18:51 12:23:55 78° 318° (NW) 12:28:39 437.345 MHz
Uribyol 2 16 Sep 12:21:38 12:25:00 18° 37° (NE) 12:28:23 436.500 FM
AO-Echo 16 Sep 12:22:16 12:24:57 15° 39° (NE) 12:27:38 ?
JAS-2 16 Sep 12:24:17 12:25:45 11° 340° (NNW) 12:27:14 435.800 - 435.900 CW/SSB, 435.910 FM
TMSAT-1 16 Sep 12:25:27 12:27:25 12° 25° (NNE) 12:29:23 436.925 FM
RS-15 16 Sep 12:34:21 12:45:23 83° 23° (NNE) 12:56:42 29.354 - 29.394 USB, Beacon 29.352 USB
Oscar 19 16 Sep 12:39:45 12:44:13 30° 50° (NE) 12:48:42 437.125 CW, 437.150 USB
AO-27 16 Sep 12:49:40 12:53:38 23° 44° (NE) 12:57:36 436.795 MHz FM
HO-68 16 Sep 12:51:18 12:58:17 57° 305° (NW) 13:05:16 435.675 MHz FM
JAS-1B 16 Sep 13:02:00 13:09:05 38° 49° (NE) 13:15:09 435.800 - 435.900 CW/SSB
FUNcube-1 16 Sep 13:09:02 13:13:40 74° 291° (WNW) 13:18:18 145.950 - 145.970 MHz USB
Oscar 16 16 Sep 13:17:14 13:22:12 47° 59° (ENE) 13:27:11 437.025 USB, Beacon 2401.1428
Gurwin Techsat 1B 16 Sep 13:22:48 13:26:48 22° 43° (NE) 13:30:49 435.225 FM
Oscar 11 16 Sep 13:29:13 13:33:05 31° 303° (WNW) 13:36:56 145.825 FM, Beacon 2401.500 USB
Uosat F 16 Sep 13:32:20 13:32:55 10° 22° (NNE) 13:33:31 435.120 FM
UKube-1 16 Sep 13:42:36 13:46:06 24° 310° (NW) 13:49:35 145.840 MHz, 145.915 MHz
AO-7 16 Sep 13:49:12 13:56:08 31° 26° (NNE) 14:03:05 29.400 - 29.500 MHz
ITAMSAT 1 16 Sep 13:53:32 13:58:26 45° 58° (ENE) 14:03:22 435.822 SSB
MaSat-1 16 Sep 13:56:44 14:01:19 36° 340° (NNW) 14:05:33 437.345 MHz
AO-Echo 16 Sep 13:58:18 14:02:49 47° 61° (ENE) 14:07:20 ?
Uribyol 2 16 Sep 13:58:32 14:03:31 50° 60° (ENE) 14:08:32 436.500 FM
TMSAT-1 16 Sep 14:01:26 14:05:52 28° 49° (NE) 14:10:20 436.925 FM
Oscar 19 16 Sep 14:17:58 14:23:11 82° 252° (WSW) 14:28:27 437.125 CW, 437.150 USB
Sapphire 16 Sep 14:18:12 14:22:37 26° 116° (ESE) 14:27:02 437.095 MHz 1200 baud AX-25 AFSK
AO-27 16 Sep 14:27:19 14:32:28 70° 66° (ENE) 14:37:39 436.795 MHz FM
HO-68 16 Sep 14:39:11 14:44:51 26° 329° (NNW) 14:50:32 435.675 MHz FM
PCSat 16 Sep 14:44:49 14:49:46 37° 123° (ESE) 14:54:45 145.825 MHz
FUNcube-1 16 Sep 14:46:03 14:49:28 21° 312° (NW) 14:52:52 145.950 - 145.970 MHz USB
RS-15 16 Sep 14:46:51 14:57:29 59° 232° (SW) 15:08:28 29.354 - 29.394 USB, Beacon 29.352 USB
JAS-1B 16 Sep 14:51:06 14:59:23 84° 251° (WSW) 15:06:16 435.800 - 435.900 CW/SSB
Oscar 16 16 Sep 14:56:37 15:01:38 47° 261° (W) 15:06:41 437.025 USB, Beacon 2401.1428
Gurwin Techsat 1B 16 Sep 15:00:47 15:06:03 67° 65° (ENE) 15:11:21 435.225 FM
Uosat F 16 Sep 15:06:17 15:10:12 24° 45° (NE) 15:14:07 435.120 FM
Oscar 11 16 Sep 15:07:17 15:08:08 11° 325° (NW) 15:08:59 145.825 FM, Beacon 2401.500 USB
ITAMSAT 1 16 Sep 15:32:58 15:37:59 49° 260° (W) 15:43:03 435.822 SSB
MaSat-1 16 Sep 15:35:00 15:39:11 29° 3° (N) 15:42:59 437.345 MHz
AO-Echo 16 Sep 15:37:18 15:41:45 40° 263° (W) 15:46:13 ?
Uribyol 2 16 Sep 15:38:12 15:43:08 44° 262° (W) 15:48:08 436.500 FM
AO-7 16 Sep 15:39:36 15:47:43 61° 52° (NE) 15:55:50 29.400 - 29.500 MHz
TMSAT-1 16 Sep 15:40:01 15:45:20 89° 251° (WSW) 15:50:42 436.925 FM
JAS-2 16 Sep 15:48:42 15:51:40 16° 32° (NNE) 15:54:41 435.800 - 435.900 CW/SSB, 435.910 FM
Oscar 19 16 Sep 15:59:28 16:03:21 21° 274° (W) 16:07:16 437.125 CW, 437.150 USB
Sapphire 16 Sep 16:00:00 16:05:26 79° 138° (SE) 16:10:54 437.095 MHz 1200 baud AX-25 AFSK
AO-27 16 Sep 16:07:55 16:12:28 30° 268° (W) 16:17:02 436.795 MHz FM
HO-68 16 Sep 16:26:02 16:30:32 18° 355° (N) 16:35:01 435.675 MHz FM
PCSat 16 Sep 16:27:28 16:32:55 80° 326° (NW) 16:38:24 145.825 MHz
Oscar 16 16 Sep 16:40:33 16:42:21 12° 283° (WNW) 16:44:10 437.025 USB, Beacon 2401.1428
Gurwin Techsat 1B 16 Sep 16:41:42 16:46:27 32° 267° (W) 16:51:14 435.225 FM
Uosat F 16 Sep 16:43:24 16:48:24 77° 67° (ENE) 16:53:26 435.120 FM
JAS-1B 16 Sep 16:44:04 16:50:53 29° 272° (W) 16:56:51 435.800 - 435.900 CW/SSB
Hamsat 16 Sep 16:49:22 16:52:29 20° 49° (NE) 16:55:36 145.90 MHz
RS-15 16 Sep 16:59:39 17:07:31 23° 259° (W) 17:15:35 29.354 - 29.394 USB, Beacon 29.352 USB
MaSat-1 16 Sep 17:12:31 17:16:58 43° 27° (NNE) 17:20:52 437.345 MHz
ITAMSAT 1 16 Sep 17:16:47 17:18:49 12° 282° (WNW) 17:20:51 435.822 SSB
TMSAT-1 16 Sep 17:21:50 17:26:01 23° 273° (W) 17:30:14 436.925 FM
Uribyol 2 16 Sep 17:22:52 17:24:03 11° 284° (WNW) 17:25:15 436.500 FM
OPAL 16 Sep 17:23:59 17:26:52 15° 84° (E) 17:29:44 ?
JAS-2 16 Sep 17:30:46 17:35:38 42° 57° (ENE) 17:40:35 435.800 - 435.900 CW/SSB, 435.910 FM
AO-7 16 Sep 17:32:34 17:40:44 57° 256° (WSW) 17:48:55 29.400 - 29.500 MHz
Sapphire 16 Sep 17:43:55 17:49:14 52° 342° (NNW) 17:54:35 437.095 MHz 1200 baud AX-25 AFSK
HO-68 16 Sep 18:10:56 18:16:03 22° 21° (NNE) 18:21:10 435.675 MHz FM
PCSat 16 Sep 18:11:41 18:16:56 47° 350° (N) 18:22:12 145.825 MHz
Hamsat 16 Sep 18:23:30 18:27:52 75° 70° (ENE) 18:32:15 145.90 MHz
Uosat F 16 Sep 18:23:33 18:27:45 26° 269° (W) 18:31:58 435.120 FM
MaSat-1 16 Sep 18:49:35 18:54:01 64° 232° (SW) 18:57:50 437.345 MHz
SO-67 16 Sep 18:58:13 19:01:18 31° 62° (ENE) 19:04:24 435.3500 MHz FM
OPAL 16 Sep 19:01:43 19:06:54 58° 106° (ESE) 19:12:00 ?
JAS-2 16 Sep 19:15:47 19:20:51 49° 260° (W) 19:25:57 435.800 - 435.900 CW/SSB, 435.910 FM
Sapphire 16 Sep 19:28:18 19:33:33 46° 8° (N) 19:38:47 437.095 MHz 1200 baud AX-25 AFSK
AO-7 16 Sep 19:29:58 19:35:33 19° 281° (WNW) 19:41:09 29.400 - 29.500 MHz
STRAND 1 16 Sep 19:37:44 19:41:22 19° 85° (E) 19:44:59 ?
KITSAT 1 16 Sep 19:41:32 19:44:13 12° 94° (E) 19:46:54 435.175 FM
Oscar 11 16 Sep 19:49:30 19:50:50 11° 36° (NE) 19:52:10 145.825 FM, Beacon 2401.500 USB
HO-68 16 Sep 19:55:40 20:02:14 42° 46° (NE) 20:08:49 435.675 MHz FM
PCSat 16 Sep 19:55:56 20:01:15 50° 15° (NNE) 20:06:33 145.825 MHz
Hamsat 16 Sep 20:00:50 20:04:19 23° 271° (W) 20:07:49 145.90 MHz
UKube-1 16 Sep 20:01:23 20:04:00 16° 42° (NE) 20:06:38 145.840 MHz, 145.915 MHz
Saudisat 1A 16 Sep 20:06:02 20:10:00 33° 130° (SE) 20:14:00 436.775 MHz
MaSat-1 16 Sep 20:27:36 20:29:53 14° 256° (WSW) 20:32:01 437.345 MHz
SO-67 16 Sep 20:31:02 20:34:18 39° 262° (W) 20:37:36 435.3500 MHz FM
OPAL 16 Sep 20:40:49 20:45:42 41° 308° (NW) 20:50:32 ?
FUNcube-1 16 Sep 21:04:41 21:07:43 18° 45° (NE) 21:10:48 145.950 - 145.970 MHz USB
JAS-2 16 Sep 21:05:51 21:07:28 11° 284° (WNW) 21:09:06 435.800 - 435.900 CW/SSB, 435.910 FM
Sapphire 16 Sep 21:12:09 21:17:38 74° 32° (NNE) 21:23:05 437.095 MHz 1200 baud AX-25 AFSK
STRAND 1 16 Sep 21:16:17 21:21:27 76° 107° (ESE) 21:26:35 ?
Oscar 11 16 Sep 21:21:59 21:25:56 34° 58° (ENE) 21:29:55 145.825 FM, Beacon 2401.500 USB
KITSAT 1 16 Sep 21:30:04 21:37:22 39° 118° (ESE) 21:44:41 435.175 FM
UKube-1 16 Sep 21:35:12 21:39:27 54° 64° (ENE) 21:43:43 145.840 MHz, 145.915 MHz
PCSat 16 Sep 21:39:38 21:45:07 86° 219° (SW) 21:50:34 145.825 MHz
HO-68 16 Sep 21:42:26 21:49:36 79° 250° (WSW) 21:56:50 435.675 MHz FM
Saudisat 1A 16 Sep 21:44:52 21:49:19 86° 332° (NNW) 21:53:47 436.775 MHz
OPAL 16 Sep 22:20:16 22:23:30 17° 330° (NNW) 22:26:43 ?
FUNcube-1 16 Sep 22:38:59 22:43:23 63° 67° (ENE) 22:47:56 145.950 - 145.970 MHz USB
Sapphire 16 Sep 22:55:47 23:00:53 42° 235° (SW) 23:05:58 437.095 MHz 1200 baud AX-25 AFSK
STRAND 1 16 Sep 22:55:51 23:00:20 31° 309° (NW) 23:04:48 ?
Oscar 11 16 Sep 22:57:45 23:02:02 53° 259° (W) 23:06:21 145.825 FM, Beacon 2401.500 USB
UKube-1 16 Sep 23:12:01 23:15:55 31° 265° (W) 23:19:49 145.840 MHz, 145.915 MHz
PCSat 16 Sep 23:23:24 23:28:03 29° 242° (WSW) 23:32:40 145.825 MHz
KITSAT 1 16 Sep 23:24:01 23:32:09 87° 143° (SE) 23:40:18 435.175 FM
Saudisat 1A 16 Sep 23:24:54 23:29:15 54° 356° (N) 23:33:37 436.775 MHz
HO-68 16 Sep 23:32:42 23:38:29 26° 274° (W) 23:44:19 435.675 MHz FM
AO-40 16 Sep 23:55:10 03:46:07 20° 163° (SSE) 05:32:41 Beacon 2401.320
OPAL 16 Sep 23:59:41 00:00:36 10° 354° (N) 00:01:31 ?
FUNcube-1 17 Sep 00:16:19 00:20:10 28° 269° (W) 00:24:08 145.950 - 145.970 MHz USB
Oscar 10/S400 17 Sep 00:28:32 01:04:50 31° 195° (SSW) 05:13:46 145.825 - 145.975 CW/USB, Beacon 145.810 USB
STRAND 1 17 Sep 00:36:04 00:38:12 13° 332° (NNW) 00:40:21 ?
Oscar 11 17 Sep 00:37:52 00:39:16 11° 281° (W) 00:40:40 145.825 FM, Beacon 2401.500 USB
Sapphire 17 Sep 00:41:15 00:43:01 12° 257° (WSW) 00:44:46 437.095 MHz 1200 baud AX-25 AFSK
SO-50 17 Sep 01:00:01 01:03:59 30° 127° (SE) 01:08:02 436.795 FM
Saudisat 1A 17 Sep 01:04:52 01:09:18 67° 19° (NNE) 01:13:44 436.775 MHz
KITSAT 1 17 Sep 01:20:05 01:28:09 63° 350° (N) 01:36:12 435.175 FM
OPAL 17 Sep 01:35:29 01:37:33 12° 18° (NNE) 01:39:37 ?
Oscar 19 17 Sep 02:19:48 02:23:26 19° 84° (E) 02:27:01 437.125 CW, 437.150 USB
JAS-1B 17 Sep 02:26:22 02:29:29 14° 75° (ENE) 02:32:29 435.800 - 435.900 CW/SSB
AO-27 17 Sep 02:31:30 02:33:36 12° 78° (ENE) 02:35:42 436.795 MHz FM
SO-50 17 Sep 02:39:33 02:44:09 87° 149° (SSE) 02:48:54 436.795 FM
Saudisat 1A 17 Sep 02:44:35 02:48:53 51° 222° (SW) 02:53:11 436.775 MHz
UOSAT-12 17 Sep 02:53:29 02:57:40 33° 129° (SE) 03:01:54 437.025 FM, 437.400 FM
Oscar 16 17 Sep 02:57:39 03:02:20 32° 93° (E) 03:06:57 437.025 USB, Beacon 2401.1428
Gurwin Techsat 1B 17 Sep 03:07:51 03:10:20 13° 78° (ENE) 03:12:49 435.225 FM
OPAL 17 Sep 03:10:46 03:14:56 25° 41° (NE) 03:19:07 ?
KITSAT 1 17 Sep 03:16:25 03:24:31 69° 18° (NNE) 03:32:36 435.175 FM
AO-Echo 17 Sep 03:33:26 03:37:42 32° 94° (E) 03:42:01 ?
ITAMSAT 1 17 Sep 03:35:13 03:39:49 30° 93° (E) 03:44:24 435.822 SSB
Uribyol 2 17 Sep 03:40:06 03:44:51 34° 94° (E) 03:49:35 436.500 FM
TMSAT-1 17 Sep 03:46:01 03:49:43 19° 84° (E) 03:53:24 436.925 FM
Oscar 19 17 Sep 03:58:28 04:03:42 74° 106° (ESE) 04:08:53 437.125 CW, 437.150 USB
AO-27 17 Sep 04:09:21 04:14:26 49° 100° (E) 04:19:30 436.795 MHz FM
JAS-1B 17 Sep 04:15:50 04:21:58 57° 101° (E) 04:27:33 435.800 - 435.900 CW/SSB
SO-50 17 Sep 04:20:28 04:25:03 56° 353° (N) 04:29:45 436.795 FM
Saudisat 1A 17 Sep 04:25:10 04:27:38 15° 243° (WSW) 04:30:06 436.775 MHz
UOSAT-12 17 Sep 04:32:46 04:37:30 90° 331° (NNW) 04:42:18 437.025 FM, 437.400 FM
Oscar 16 17 Sep 04:36:55 04:42:06 66° 295° (WNW) 04:47:15 437.025 USB, Beacon 2401.1428
Uosat F 17 Sep 04:42:29 04:44:18 12° 78° (ENE) 04:46:07 435.120 FM
Gurwin Techsat 1B 17 Sep 04:46:23 04:51:36 52° 100° (E) 04:56:48 435.225 FM
OPAL 17 Sep 04:48:00 04:53:12 73° 63° (ENE) 04:58:27 ?
AO-Echo 17 Sep 05:12:08 05:16:49 61° 295° (WNW) 05:21:36 ?
KITSAT 1 17 Sep 05:12:08 05:20:12 71° 225° (SW) 05:28:12 435.175 FM
ITAMSAT 1 17 Sep 05:14:35 05:19:47 70° 294° (WNW) 05:24:58 435.822 SSB
Uribyol 2 17 Sep 05:19:32 05:24:42 64° 296° (WNW) 05:29:52 436.500 FM
AO-7 17 Sep 05:22:05 05:29:15 31° 89° (E) 05:36:22 29.400 - 29.500 MHz
RS-15 17 Sep 05:23:56 05:32:50 30° 107° (ESE) 05:41:41 29.354 - 29.394 USB, Beacon 29.352 USB
TMSAT-1 17 Sep 05:25:16 05:30:36 73° 106° (ESE) 05:35:55 436.925 FM
STRAND 1 17 Sep 05:26:13 05:30:04 22° 44° (NE) 05:33:56 ?
Oscar 19 17 Sep 05:38:11 05:42:45 32° 308° (NW) 05:47:18 437.125 CW, 437.150 USB
AO-27 17 Sep 05:49:03 05:54:00 45° 302° (WNW) 05:58:56 436.795 MHz FM
SO-50 17 Sep 06:01:26 06:06:07 65° 17° (NNE) 06:10:55 436.795 FM
JAS-1B 17 Sep 06:06:44 06:12:39 43° 307° (NW) 06:18:02 435.800 - 435.900 CW/SSB
JAS-2 17 Sep 06:12:57 06:16:18 16° 81° (E) 06:19:49 435.800 - 435.900 CW/SSB, 435.910 FM
UOSAT-12 17 Sep 06:13:20 06:18:01 56° 354° (N) 06:22:43 437.025 FM, 437.400 FM
Oscar 16 17 Sep 06:16:51 06:20:44 22° 317° (NW) 06:24:36 437.025 USB, Beacon 2401.1428
Uosat F 17 Sep 06:19:28 06:24:22 49° 100° (E) 06:29:14 435.120 FM
ISS 17 Sep 06:23:31 06:24:37 11° 157° (SSE) 06:25:43 145.800 FM
Gurwin Techsat 1B 17 Sep 06:26:34 06:31:36 44° 302° (WNW) 06:36:36 435.225 FM
OPAL 17 Sep 06:28:01 06:32:34 30° 265° (W) 06:37:10 ?
